Powrót do katalogu

STARLINK-34731

AktywnyŁącznośćVLEO
NORAD 65029·PAYLOAD·🇺🇸 United States

Wystrzelony Jul 30, 2025 z Cape Canaveral Space Force Station

Loading…

Następne Przeloty (najbliższe 24 godziny)

TLE

ŚwieżeSource: CelesTrak SupGP

Epoka: Sep 14, 2026, 21:07 UTC

1 65029C 25161Q   26257.88034722 -.00039256  00000+0 -11599-2 0  2573
2 65029  53.1573 131.6856 0001265  81.1911  98.1438 15.34408062    10

Śledź STARLINK-34731 w czasie rzeczywistym z AllMySat

Download on the App Store